Cavern City Air Terminal
KCNM : rendu visible

Aérodrome :











RETROUVEZ-NOUS SUR...

 
LOGIN :

S'inscrire | Disclaimer

   EN    FR    IT 

 









Légende :    VFR   VFR Marginal   IFR   IFR Intensif   IFR Très Intensif
Visi : 
Plafond : 
>= 8 km
>= 3000ft
5 à 8 km
1000 à 3000 ft
1500m à 5 km
500 à 1000 ft
800 à 1500m
200 à 500 ft
< 800m
< 200 ft
Symboles :   Orages  Brouillard  Fortes neiges  Fortes précipitations  Vent > 20 kt






- Altitude de l'aérodrome : 3295 ft
- Code IATA : CNM


KCNM - Cavern City Air Terminal

DERNIER METAR :
  • 271253Z AUTO 34005KT 10SM CLR 16/03 A2993 RMK AO2 SLP084 T01610028

METARs EXPIRÉS :
  • 271153Z AUTO 33003KT 10SM CLR 14/02 A2990 RMK AO2 SLP076 T01390017 10228 20133 53010
  • 271053Z AUTO 00000KT 10SM CLR 15/02 A2988 RMK AO2 SLP070 T01500022

TAF KCNM
Valide du 27 à 12h jusqu'au 28 à 12h UTC


271120Z 2712/2812 17008KT P6SM FEW150
FM271400 01011KT P6SM SKC
FM272000 05009KT P6SM SKC
FIR KZAB / Amérique du Nord



MET'MAP, la Météo Aéronautique d'un coup d'oeil ! - Copyright ORBIFLY Décembre 2007 - Disclaimer

ORBIFLY MET'MAP TEAM :

Programmation & Développement : Alexandra Zaïnal
Sur une idée originale de : Baudouin d'Aumeries
Assistance à la programmation : Marc-Olivier Méhu
Soutien technique & logistique : Manuel Goepfert

Contact : metmap@orbifly.com




SOURCES & CREDITS :

   NOAA       Earth
Advisory